Regional Weather Roundup
Issued by NWS

Home | Current Version | Previous Version | Graphics & Text | Print | Product List | Glossary On
Versions: 1 2 3 4 5 6 7 8 9 10 11 12 13 14 15 16 17 18 19 20 21 22 23 24 25 26 27 28 29 30 31 32 33 34 35 36 37 38 39 40 41 42 43 44 45 46 47 48
624
ASUS45 KCYS 072310
RWRWY

WYOMING REGIONAL WEATHER ROUNDUP
NATIONAL WEATHER SERVICE CHEYENNE WY
400 PM MST SUN FEB 07 2016

NOTE:  "FAIR" INDICATES FEW OR NO CLOUDS BELOW 12,000 FEET
WITH NO SIGNIFICANT WEATHER AND/OR OBSTRUCTIONS TO VISIBILITY.

WYZ001-080000-
YELLOWSTONE NATIONAL PARK

CITY           SKY/WX    TMP DP  RH WIND       PRES   REMARKS
LK YELLOWSTONE   N/A     29   9  43 VRB6      30.47R WCI  23
W YELLOWSTONE  NOT AVBL

$$
WYZ002>013-054>058-071-098>099-080000-
NORTHERN WYOMING

CITY           SKY/WX    TMP DP  RH WIND       PRES   REMARKS
JACKSON        SUNNY     36   7  30 W18G25    30.47  WCI  25
CODY           FAIR      37  14  38 NE12      30.39R WCI  30
GREYBULL       FAIR      40  10  29 NW12      30.40R WCI  33
WORLAND        FAIR      37  12  35 CALM      30.42R
SHERIDAN       PTSUNNY   35  14  42 N22       30.40R WCI  23
BUFFALO        FAIR      31  13  47 N24G37    30.34S WCI  17
GILLETTE       FAIR      31  11  43 NW24G32   30.34R WCI  17
HULETT         FAIR      32   9  37 NW31G37   30.30R WCI  17
NEWCASTLE      FAIR      32   5  32 NW28G38   30.29R WCI  18

$$
WYZ014>020-022>026-101>103-080000-
CENTRAL WYOMING

CITY           SKY/WX    TMP DP  RH WIND       PRES   REMARKS
BIG PINEY      FAIR      36  19  50 N12       30.43R WCI  28
PINEDALE       FAIR      32  18  55 NW22G29   30.41R WCI  19
DUBOIS         FAIR      34   9  35 NW7G18    30.40R WCI  28
LANDER         FAIR      32  15  49 NE3       30.37R
RIVERTON       FAIR      31  15  52 SE8       30.38R WCI  23
CASPER         FAIR      28  16  60 W14       30.38R WCI  17
DOUGLAS        FAIR      29  13  51 NW21G29     N/A  WCI  16

$$
WYZ021-027>030-104>119-080000-
SOUTHERN WYOMING

CITY           SKY/WX    TMP DP  RH WIND       PRES   REMARKS
EVANSTON       FAIR      30  21  69 SW13      30.52R WCI  20
KEMMERER       FAIR      32  23  69 W23G29    30.48R WCI  19
FORT BRIDGER   CLEAR     34  23  64 W18       30.52S WCI  23
ROCK SPRINGS   FAIR      32  21  64 W29G36    30.42R WCI  18
DIXON          FAIR      33  19  57 SW6       30.47R WCI  27
RAWLINS        FAIR      31  22  69 W28G40    30.35S WCI  17
SARATOGA       FAIR      30  21  69 W18G26    30.38F WCI  18
LARAMIE          N/A     26  20  77 N13       30.27R WCI  15
CHEYENNE       FAIR      29  17  61 N25G33    30.25R WCI  14
TORRINGTON     CLOUDY    34  13  41 NW28G38   30.31R WCI  21
PINE BLUFFS    CLOUDY    28  18  64 N30       30.28R WCI  13

$$




USA.gov is the U.S. government's official web portal to all federal, state and local government web resources and services.